,,Stat5,,Stat1,,Stat2,,Stat3,,Stat4,,Wind1,,Wind1,
time,status,PA1M_AVG,status,PR1M_SUM,status,RH1M_AVG,status,SR1M_AVG,status,TA1M_AVG,status,W1dAve1m,status,W1sAve1m,
2002-05-06, 00:00:00,VALID,914.831,VALID,0,VALID,99.6913,VALID,-0.101885,VALID,19.5966,VALID,118,VALID,0.881373,
2002-05-06, 00:01:00,VALID,914.815,VALID,0,VALID,99.6887,VALID,-0.101885,VALID,19.5931,VALID,126,VALID,0.4267,
2002-05-06, 00:02:00,VALID,914.787,VALID,0,VALID,99.6925,VALID,-0.101885,VALID,19.6025,VALID,115,VALID,0.90645,
2002-05-06, 00:03:00,VALID,914.777,VALID,0,VALID,99.6976,VALID,-0.101885,VALID,19.6063,VALID,108,VALID,0.835227,
2002-05-06, 00:04:00,VALID,914.753,VALID,0,VALID,99.6887,VALID,-0.101885,VALID,19.5929,VALID,96,VALID,0.77036,
2002-05-06, 00:05:00,VALID,914.738,VALID,0,VALID,99.6963,VALID,-0.101885,VALID,19.5834,VALID,81,VALID,1.02919,
2002-05-06, 00:06:00,VALID,914.727,VALID,0,VALID,99.6951,VALID,-0.101885,VALID,19.5603,VALID,79,VALID,0.957682,
2002-05-06, 00:07:00,VALID,914.712,VALID,0,VALID,99.7091,VALID,-0.101885,VALID,19.5576,VALID,92,VALID,0.964738,
2002-05-06, 00:08:00,VALID,914.717,VALID,0,VALID,99.704,VALID,-0.0509425,VALID,19.5337,VALID,110,VALID,0.927734,
2002-05-06, 00:09:00,VALID,914.701,VALID,0,VALID,99.7027,VALID,0,VALID,19.5404,VALID,111,VALID,0.864583,
2002-05-06, 00:10:00,VALID,914.681,VALID,0,VALID,99.7002,VALID,0,VALID,19.5399,VALID,109,VALID,0.8125,
2002-05-06, 00:11:00,VALID,914.668,VALID,0,VALID,99.704,VALID,0.0169808,VALID,19.5628,VALID,91,VALID,0.904194,
2002-05-06, 00:12:00,VALID,914.63,VALID,0,VALID,99.6976,VALID,0.0169808,VALID,19.5491,VALID,93,VALID,0.828559,
2002-05-06, 00:13:00,VALID,914.626,VALID,0,VALID,99.7002,VALID,0.0169808,VALID,19.5496,VALID,142,VALID,0.663603,
2002-05-06, 00:14:00,VALID,914.604,VALID,0,VALID,99.7141,VALID,0.0169808,VALID,19.5429,VALID,133,VALID,0.66847,
2002-05-06, 00:15:00,VALID,914.602,VALID,0,VALID,99.7091,VALID,0.0169808,VALID,19.5399,VALID,101,VALID,0.701823,
2002-05-06, 00:16:00,VALID,914.576,VALID,0,VALID,99.7116,VALID,0.0169808,VALID,19.5367,VALID,84,VALID,0.661075,
2002-05-06, 00:17:00,VALID,914.558,VALID,0,VALID,99.7192,VALID,0,VALID,19.5335,VALID,76,VALID,0.384079,
2002-05-06, 00:18:00,VALID,914.533,VALID,0,VALID,99.7052,VALID,0,VALID,19.5369,VALID,74,VALID,0.412224,
2002-05-06, 00:19:00,VALID,914.516,VALID,0,VALID,99.7078,VALID,0,VALID,19.524,VALID,79,VALID,0.510557,
2002-05-06, 00:20:00,VALID,914.506,VALID,0,VALID,99.7103,VALID,0.0169808,VALID,19.5335,VALID,78,VALID,0.735894,
2002-05-06, 00:21:00,VALID,914.481,VALID,0,VALID,99.7091,VALID,0.0169808,VALID,19.5461,VALID,72,VALID,0.690814,
2002-05-06, 00:22:00,VALID,914.474,VALID,0,VALID,99.7103,VALID,0,VALID,19.5402,VALID,52,VALID,0.602273,
2002-05-06, 00:23:00,VALID,914.457,VALID,0,VALID,99.7078,VALID,0,VALID,19.524,VALID,49,VALID,0.661801,
2002-05-06, 00:24:00,VALID,914.431,VALID,0,VALID,99.7129,VALID,0,VALID,19.5136,VALID,67,VALID,0.695313,
2002-05-06, 00:25:00,VALID,914.417,VALID,0,VALID,99.7103,VALID,0,VALID,19.527,VALID,74,VALID,0.853674,
2002-05-06, 00:26:00,VALID,914.397,VALID,0,VALID,99.718,VALID,0,VALID,19.5009,VALID,78,VALID,0.755642,
2002-05-06, 00:27:00,VALID,914.395,VALID,0,VALID,99.7103,VALID,0,VALID,19.4917,VALID,66,VALID,0.83572,
2002-05-06, 00:28:00,VALID,914.376,VALID,0,VALID,99.7205,VALID,0,VALID,19.4942,VALID,44,VALID,1.0842,
2002-05-06, 00:29:00,VALID,914.338,VALID,0,VALID,99.7129,VALID,0,VALID,19.5268,VALID,49,VALID,0.752467,
2002-05-06, 00:30:00,VALID,914.33,VALID,0,VALID,99.7129,VALID,-0.0339617,VALID,19.5404,VALID,51,VALID,0.617188,
2002-05-06, 00:31:00,VALID,914.317,VALID,0,VALID,99.7141,VALID,0,VALID,19.5243,VALID,49,VALID,0.212316,
2002-05-06, 00:32:00,VALID,914.298,VALID,0,VALID,99.7218,VALID,0,VALID,19.4984,VALID,46,VALID,0.00600962,
2002-05-06, 00:33:00,VALID,914.281,VALID,0,VALID,99.7167,VALID,0,VALID,19.4686,VALID,28,VALID,0.0770399,
2002-05-06, 00:34:00,VALID,914.257,VALID,0,VALID,99.7243,VALID,0,VALID,19.4594,VALID,16,VALID,0.310662,
2002-05-06, 00:35:00,VALID,914.228,VALID,0,VALID,99.7332,VALID,0.0169808,VALID,19.4753,VALID,14,VALID,0.279139,
2002-05-06, 00:36:00,VALID,914.201,VALID,0,VALID,99.7256,VALID,0,VALID,19.4788,VALID,14,VALID,0.587316,
2002-05-06, 00:37:00,VALID,914.183,VALID,0,VALID,99.723,VALID,0.0169808,VALID,19.5079,VALID,15,VALID,0.0929054,
2002-05-06, 00:38:00,VALID,914.17,VALID,0,VALID,99.7167,VALID,-0.0339617,VALID,19.5116,VALID,93,VALID,0.356554,
2002-05-06, 00:39:00,VALID,914.142,VALID,0,VALID,99.7091,VALID,0,VALID,19.5235,VALID,48,VALID,1.32576,
2002-05-06, 00:40:00,VALID,914.111,VALID,0,VALID,99.7103,VALID,0,VALID,19.5429,VALID,47,VALID,0.847301,
2002-05-06, 00:41:00,VALID,914.113,VALID,0,VALID,99.7065,VALID,0,VALID,19.5499,VALID,69,VALID,0.886102,
2002-05-06, 00:42:00,VALID,914.083,VALID,0,VALID,99.7116,VALID,-0.0169808,VALID,19.5235,VALID,86,VALID,0.644965,
2002-05-06, 00:43:00,VALID,914.083,VALID,0,VALID,99.7052,VALID,0,VALID,19.4853,VALID,114,VALID,0.532095,
2002-05-06, 00:44:00,VALID,914.058,VALID,0,VALID,99.723,VALID,0,VALID,19.4626,VALID,59,VALID,0.702474,
2002-05-06, 00:45:00,VALID,914.042,VALID,0,VALID,99.7281,VALID,0,VALID,19.4694,VALID,61,VALID,0.807726,
2002-05-06, 00:46:00,VALID,914.022,VALID,0,VALID,99.7154,VALID,0,VALID,19.4465,VALID,72,VALID,0.386719,
2002-05-06, 00:47:00,VALID,914.001,VALID,0,VALID,99.7205,VALID,0,VALID,19.4172,VALID,73,VALID,0.303865,
2002-05-06, 00:48:00,VALID,913.99,VALID,0,VALID,99.7205,VALID,0,VALID,19.408,VALID,71,VALID,0.0434028,
2002-05-06, 00:49:00,VALID,913.971,VALID,0,VALID,99.7319,VALID,0,VALID,19.3655,VALID,61,VALID,0.163143,
2002-05-06, 00:50:00,VALID,913.974,VALID,0,VALID,99.7408,VALID,-0.0169808,VALID,19.3528,VALID,5,VALID,0.472957,
2002-05-06, 00:51:00,VALID,913.961,VALID,0,VALID,99.7383,VALID,-0.0169808,VALID,19.3623,VALID,340,VALID,0.606554,
2002-05-06, 00:52:00,VALID,913.953,VALID,0,VALID,99.7269,VALID,-0.0339617,VALID,19.3883,VALID,346,VALID,0.684053,
2002-05-06, 00:53:00,VALID,913.933,VALID,0,VALID,99.7307,VALID,-0.0339617,VALID,19.398,VALID,358,VALID,0.666807,
2002-05-06, 00:54:00,VALID,913.933,VALID,0,VALID,99.7383,VALID,-0.0849042,VALID,19.4283,VALID,4,VALID,0.667969,
2002-05-06, 00:55:00,VALID,913.916,VALID,0,VALID,99.7332,VALID,-0.0849042,VALID,19.4378,VALID,5,VALID,0.403294,
2002-05-06, 00:56:00,VALID,913.9,VALID,0,VALID,99.7307,VALID,-0.101885,VALID,19.4346,VALID,350,VALID,0.322483,
2002-05-06, 00:57:00,VALID,913.882,VALID,0,VALID,99.7408,VALID,-0.101885,VALID,19.4445,VALID,348,VALID,0.0397727,
2002-05-06, 00:58:00,VALID,913.867,VALID,0,VALID,99.7294,VALID,-0.118866,VALID,19.4736,VALID,348,VALID,0.0842803,
2002-05-06, 00:59:00,VALID,913.841,VALID,0,VALID,99.7319,VALID,-0.0679233,VALID,19.5091,VALID,348,VALID,0.0717516,
2002-05-06, 01:00:00,VALID,913.828,VALID,0,VALID,99.7192,VALID,-0.101885,VALID,19.4964,VALID,348,VALID,0.133898,
2002-05-06, 01:01:00,VALID,913.814,VALID,0,VALID,99.7307,VALID,-0.0849042,VALID,19.4833,VALID,292,VALID,0.458404,
2002-05-06, 01:02:00,VALID,913.808,VALID,0,VALID,99.7269,VALID,-0.101885,VALID,19.4862,VALID,265,VALID,0.342882,
2002-05-06, 01:03:00,VALID,913.79,VALID,0,VALID,99.7205,VALID,-0.101885,VALID,19.4997,VALID,265,VALID,0.0360243,
2002-05-06, 01:04:00,VALID,913.774,VALID,0,VALID,99.7281,VALID,-0.0849042,VALID,19.5001,VALID,265,VALID,0,
2002-05-06, 01:05:00,VALID,913.752,VALID,0,VALID,99.737,VALID,-0.101885,VALID,19.48,VALID,265,VALID,0,
2002-05-06, 01:06:00,VALID,913.725,VALID,0,VALID,99.7345,VALID,-0.101885,VALID,19.4706,VALID,265,VALID,0.00238715,
2002-05-06, 01:07:00,VALID,913.707,VALID,0,VALID,99.7269,VALID,-0.0849042,VALID,19.4641,VALID,265,VALID,0.0402114,
2002-05-06, 01:08:00,VALID,913.691,VALID,0,VALID,99.7332,VALID,-0.0679233,VALID,19.4572,VALID,272,VALID,0.145032,
2002-05-06, 01:09:00,VALID,913.687,VALID,0,VALID,99.7256,VALID,0.0169808,VALID,19.443,VALID,303,VALID,0.47526,
2002-05-06, 01:10:00,VALID,913.673,VALID,0,VALID,99.7218,VALID,0,VALID,19.4629,VALID,314,VALID,0.462086,
2002-05-06, 01:11:00,VALID,913.662,VALID,0,VALID,99.7256,VALID,0,VALID,19.4922,VALID,315,VALID,0.266047,
2002-05-06, 01:12:00,VALID,913.65,VALID,0,VALID,99.7167,VALID,0,VALID,19.4594,VALID,289,VALID,0.397059,
2002-05-06, 01:13:00,VALID,913.651,VALID,0,VALID,99.7256,VALID,0,VALID,19.4659,VALID,282,VALID,0.205448,
2002-05-06, 01:14:00,VALID,913.628,VALID,0,VALID,99.7141,VALID,0,VALID,19.4756,VALID,282,VALID,0.0562066,
2002-05-06, 01:15:00,VALID,913.617,VALID,0,VALID,99.7358,VALID,0,VALID,19.4659,VALID,282,VALID,0.00189394,
2002-05-06, 01:16:00,VALID,913.6,VALID,0,VALID,99.7358,VALID,0,VALID,19.4691,VALID,282,VALID,0.0714962,
2002-05-06, 01:17:00,VALID,913.587,VALID,0,VALID,99.7294,VALID,0,VALID,19.4885,VALID,282,VALID,0.339021,
2002-05-06, 01:18:00,VALID,913.568,VALID,0,VALID,99.7218,VALID,0,VALID,19.5243,VALID,286,VALID,0.333984,
2002-05-06, 01:19:00,VALID,913.549,VALID,0,VALID,99.7243,VALID,0,VALID,19.53,VALID,287,VALID,0.0726351,
2002-05-06, 01:20:00,VALID,913.505,VALID,0,VALID,99.7192,VALID,0,VALID,19.5399,VALID,287,VALID,0.0523003,
2002-05-06, 01:21:00,VALID,913.491,VALID,0,VALID,99.7192,VALID,0,VALID,19.5531,VALID,287,VALID,0.0295139,
2002-05-06, 01:22:00,VALID,913.476,VALID,0,VALID,99.7243,VALID,0,VALID,19.5146,VALID,287,VALID,0,
2002-05-06, 01:23:00,VALID,913.458,VALID,0,VALID,99.7332,VALID,0.0169808,VALID,19.4885,VALID,287,VALID,0,
2002-05-06, 01:24:00,VALID,913.444,VALID,0,VALID,99.7485,VALID,0,VALID,19.4562,VALID,287,VALID,0,
2002-05-06, 01:25:00,VALID,913.415,VALID,0,VALID,99.7485,VALID,0,VALID,19.4664,VALID,287,VALID,0,
2002-05-06, 01:26:00,VALID,913.408,VALID,0,VALID,99.7447,VALID,0,VALID,19.4691,VALID,292,VALID,0.163061,
2002-05-06, 01:27:00,VALID,913.388,VALID,0,VALID,99.737,VALID,0,VALID,19.4788,VALID,310,VALID,0.318359,
2002-05-06, 01:28:00,VALID,913.369,VALID,0,VALID,99.7408,VALID,-0.0169808,VALID,19.5054,VALID,328,VALID,0.212776,
2002-05-06, 01:29:00,VALID,913.35,VALID,0,VALID,99.7396,VALID,-0.0169808,VALID,19.4882,VALID,347,VALID,0.466427,
2002-05-06, 01:30:00,VALID,913.313,VALID,0,VALID,99.7434,VALID,-0.0169808,VALID,19.4661,VALID,358,VALID,0.116958,
2002-05-06, 01:31:00,VALID,913.287,VALID,0,VALID,99.7548,VALID,-0.0509425,VALID,19.4112,VALID,354,VALID,0.142525,
2002-05-06, 01:32:00,VALID,913.272,VALID,0,VALID,99.7434,VALID,-0.0169808,VALID,19.4274,VALID,1,VALID,0.357422,
2002-05-06, 01:33:00,VALID,913.251,VALID,0,VALID,99.737,VALID,0,VALID,19.4502,VALID,333,VALID,0.193892,
2002-05-06, 01:34:00,VALID,913.245,VALID,0,VALID,99.7421,VALID,-0.0339617,VALID,19.4599,VALID,339,VALID,0.429214,
2002-05-06, 01:35:00,VALID,913.24,VALID,0,VALID,99.7421,VALID,0,VALID,19.4726,VALID,343,VALID,0.452097,
2002-05-06, 01:36:00,VALID,913.227,VALID,0,VALID,99.7459,VALID,0,VALID,19.4599,VALID,341,VALID,0.203993,
2002-05-06, 01:37:00,VALID,913.224,VALID,0,VALID,99.7447,VALID,0,VALID,19.4723,VALID,326,VALID,0.357264,
2002-05-06, 01:38:00,VALID,913.222,VALID,0,VALID,99.737,VALID,-0.0339617,VALID,19.4728,VALID,330,VALID,0.282552,
2002-05-06, 01:39:00,VALID,913.207,VALID,0,VALID,99.7459,VALID,-0.0339617,VALID,19.4383,VALID,354,VALID,0.498047,
2002-05-06, 01:40:00,VALID,913.196,VALID,0,VALID,99.7345,VALID,0,VALID,19.3958,VALID,8,VALID,0.879123,
2002-05-06, 01:41:00,VALID,913.196,VALID,0,VALID,99.7421,VALID,0,VALID,19.3729,VALID,9,VALID,0.804688,
2002-05-06, 01:42:00,VALID,913.183,VALID,0,VALID,99.7485,VALID,-0.0169808,VALID,19.3374,VALID,9,VALID,0.708116,
2002-05-06, 01:43:00,VALID,913.169,VALID,0,VALID,99.7472,VALID,-0.0169808,VALID,19.3538,VALID,5,VALID,0.852252,
2002-05-06, 01:44:00,VALID,913.163,VALID,0,VALID,99.751,VALID,-0.0169808,VALID,19.3662,VALID,5,VALID,1.07332,
2002-05-06, 01:45:00,VALID,913.141,VALID,0,VALID,99.7561,VALID,-0.0339617,VALID,19.4117,VALID,359,VALID,1.13325,
2002-05-06, 01:46:00,VALID,913.144,VALID,0,VALID,99.7447,VALID,0,VALID,19.4211,VALID,8,VALID,1.45198,
2002-05-06, 01:47:00,VALID,913.135,VALID,0,VALID,99.7434,VALID,0,VALID,19.4435,VALID,5,VALID,1.42145,
2002-05-06, 01:48:00,VALID,913.134,VALID,0,VALID,99.737,VALID,0,VALID,19.4507,VALID,356,VALID,1.09421,
2002-05-06, 01:49:00,VALID,913.14,VALID,0,VALID,99.7485,VALID,0.0169808,VALID,19.4472,VALID,345,VALID,1.051,
2002-05-06, 01:50:00,VALID,913.13,VALID,0,VALID,99.7383,VALID,-0.0169808,VALID,19.4604,VALID,350,VALID,1.05881,
2002-05-06, 01:51:00,VALID,913.128,VALID,0,VALID,99.7396,VALID,-0.0339617,VALID,19.4731,VALID,339,VALID,0.687263,
2002-05-06, 01:52:00,VALID,913.142,VALID,0,VALID,99.7358,VALID,-0.0169808,VALID,19.4599,VALID,308,VALID,0.538352,
2002-05-06, 01:53:00,VALID,913.138,VALID,0,VALID,99.7332,VALID,0.0509425,VALID,19.4592,VALID,341,VALID,0.174548,
2002-05-06, 01:54:00,VALID,913.131,VALID,0,VALID,99.7421,VALID,0.101885,VALID,19.4358,VALID,345,VALID,0.251085,
2002-05-06, 01:55:00,VALID,913.146,VALID,0,VALID,99.7358,VALID,0.0849042,VALID,19.3936,VALID,345,VALID,0.0350507,
2002-05-06, 01:56:00,VALID,913.135,VALID,0,VALID,99.7472,VALID,0.0849042,VALID,19.3809,VALID,345,VALID,0.000651042,
2002-05-06, 01:57:00,VALID,913.135,VALID,0,VALID,99.7548,VALID,0.0849042,VALID,19.371,VALID,320,VALID,0.249349,
2002-05-06, 01:58:00,VALID,913.132,VALID,0,VALID,99.7523,VALID,0.0849042,VALID,19.365,VALID,316,VALID,0.263672,
2002-05-06, 01:59:00,VALID,913.133,VALID,0,VALID,99.7523,VALID,0.101885,VALID,19.3816,VALID,315,VALID,0.166941,
2002-05-06, 02:00:00,VALID,913.131,VALID,0,VALID,99.7561,VALID,0.0679233,VALID,19.3518,VALID,321,VALID,0.134766,
2002-05-06, 02:01:00,VALID,913.124,VALID,0,VALID,99.7561,VALID,0.0849042,VALID,19.3099,VALID,337,VALID,0.487132,
2002-05-06, 02:02:00,VALID,913.128,VALID,0,VALID,99.7523,VALID,0.0849042,VALID,19.3715,VALID,304,VALID,0.878606,
2002-05-06, 02:03:00,VALID,913.122,VALID,0,VALID,99.7408,VALID,0.0509425,VALID,19.4234,VALID,316,VALID,0.462891,
2002-05-06, 02:04:00,VALID,913.115,VALID,0,VALID,99.7434,VALID,0.0849042,VALID,19.4393,VALID,334,VALID,0.873851,
2002-05-06, 02:05:00,VALID,913.11,VALID,0,VALID,99.737,VALID,0.0849042,VALID,19.4592,VALID,324,VALID,0.705448,
2002-05-06, 02:06:00,VALID,913.088,VALID,0,VALID,99.7358,VALID,0.0509425,VALID,19.4395,VALID,307,VALID,0.537454,
2002-05-06, 02:07:00,VALID,913.081,VALID,0,VALID,99.7472,VALID,0.101885,VALID,19.4398,VALID,303,VALID,0.159206,
2002-05-06, 02:08:00,VALID,913.054,VALID,0,VALID,99.7434,VALID,0.0339617,VALID,19.408,VALID,303,VALID,0.142361,
2002-05-06, 02:09:00,VALID,913.038,VALID,0,VALID,99.7447,VALID,-0.0169808,VALID,19.3829,VALID,303,VALID,0.15554,
2002-05-06, 02:10:00,VALID,913.006,VALID,0,VALID,99.7472,VALID,-0.0339617,VALID,19.3635,VALID,303,VALID,0.00449811,
2002-05-06, 02:11:00,VALID,912.995,VALID,0,VALID,99.7536,VALID,-0.0509425,VALID,19.3508,VALID,303,VALID,0,
2002-05-06, 02:12:00,VALID,912.969,VALID,0,VALID,99.7548,VALID,-0.0679233,VALID,19.3307,VALID,303,VALID,0,
2002-05-06, 02:13:00,VALID,912.972,VALID,0,VALID,99.7523,VALID,-0.0339617,VALID,19.3342,VALID,303,VALID,0,
2002-05-06, 02:14:00,VALID,912.957,VALID,0,VALID,99.7536,VALID,-0.0339617,VALID,19.3443,VALID,303,VALID,0,
2002-05-06, 02:15:00,VALID,912.95,VALID,0,VALID,99.7485,VALID,-0.0339617,VALID,19.354,VALID,303,VALID,0,
2002-05-06, 02:16:00,VALID,912.949,VALID,0,VALID,99.751,VALID,-0.0339617,VALID,19.3409,VALID,303,VALID,0,
2002-05-06, 02:17:00,VALID,912.952,VALID,0,VALID,99.7523,VALID,-0.0509425,VALID,19.3148,VALID,303,VALID,0,
2002-05-06, 02:18:00,VALID,912.96,VALID,0,VALID,99.7574,VALID,-0.0169808,VALID,19.3217,VALID,357,VALID,0.218967,
2002-05-06, 02:19:00,VALID,912.95,VALID,0,VALID,99.765,VALID,-0.0169808,VALID,19.2633,VALID,32,VALID,0.309513,
2002-05-06, 02:20:01,VALID,912.96,VALID,0,VALID,99.7599,VALID,-0.0339617,VALID,19.2082,VALID,33,VALID,0.331931,
2002-05-06, 02:21:00,VALID,912.948,VALID,0,VALID,99.7701,VALID,-0.0169808,VALID,19.1759,VALID,33,VALID,0.178385,
2002-05-06, 02:22:00,VALID,912.932,VALID,0,VALID,99.7828,VALID,-0.0339617,VALID,19.1918,VALID,33,VALID,0.0500919,
2002-05-06, 02:23:00,VALID,912.926,VALID,0,VALID,99.7675,VALID,0,VALID,19.1821,VALID,94,VALID,0.25549,
2002-05-06, 02:24:00,VALID,912.91,VALID,0,VALID,99.7777,VALID,0.0339617,VALID,19.1553,VALID,132,VALID,0.308134,
2002-05-06, 02:25:00,VALID,912.909,VALID,0,VALID,99.779,VALID,0.0849042,VALID,19.1518,VALID,150,VALID,0.551943,
2002-05-06, 02:26:00,VALID,912.895,VALID,0,VALID,99.7828,VALID,0.0849042,VALID,19.1163,VALID,145,VALID,0.244358,
2002-05-06, 02:27:00,VALID,912.885,VALID,0,VALID,99.7828,VALID,0.101885,VALID,19.078,VALID,134,VALID,0.168797,
2002-05-06, 02:28:01,VALID,912.872,VALID,0,VALID,99.7904,VALID,0.0339617,VALID,19.0519,VALID,136,VALID,0.435133,
2002-05-06, 02:29:00,VALID,912.866,VALID,0,VALID,99.7904,VALID,0.0509425,VALID,19.0584,VALID,136,VALID,0.322163,
2002-05-06, 02:30:00,VALID,912.858,VALID,0,VALID,99.7879,VALID,0.0849042,VALID,19.0616,VALID,136,VALID,0.171441,
2002-05-06, 02:31:00,VALID,912.852,VALID,0,VALID,99.7854,VALID,0.0849042,VALID,19.0455,VALID,136,VALID,0.0219595,
2002-05-06, 02:32:00,VALID,912.843,VALID,0,VALID,99.8006,VALID,0.0849042,VALID,19.0321,VALID,136,VALID,0.341797,
2002-05-06, 02:33:00,VALID,912.841,VALID,0,VALID,99.7943,VALID,0.0849042,VALID,19.0641,VALID,138,VALID,0.516927,
2002-05-06, 02:34:00,VALID,912.826,VALID,0,VALID,99.7879,VALID,0.0679233,VALID,19.0808,VALID,140,VALID,0.10026,
2002-05-06, 02:35:01,VALID,912.826,VALID,0,VALID,99.7981,VALID,0.0679233,VALID,19.0681,VALID,143,VALID,0.488898,
2002-05-06, 02:36:00,VALID,912.831,VALID,0,VALID,99.7993,VALID,0.0509425,VALID,19.0651,VALID,148,VALID,0.409288,
2002-05-06, 02:37:00,VALID,912.841,VALID,0,VALID,99.7981,VALID,0.0339617,VALID,19.0559,VALID,159,VALID,0.680607,
2002-05-06, 02:38:01,VALID,912.856,VALID,0,VALID,99.8044,VALID,0.0339617,VALID,19.0393,VALID,145,VALID,0.588141,
2002-05-06, 02:39:00,VALID,912.872,VALID,0,VALID,99.7892,VALID,0.0169808,VALID,19.0524,VALID,139,VALID,0.472656,
2002-05-06, 02:40:00,VALID,912.875,VALID,0,VALID,99.7955,VALID,0,VALID,19.043,VALID,92,VALID,0.438879,
2002-05-06, 02:41:00,VALID,912.884,VALID,0,VALID,99.7943,VALID,0.0169808,VALID,19.0077,VALID,100,VALID,0.126056,
2002-05-06, 02:42:00,VALID,912.875,VALID,0,VALID,99.8019,VALID,0.0339617,VALID,18.962,VALID,123,VALID,0.305607,
2002-05-06, 02:43:00,VALID,912.865,VALID,0,VALID,99.8082,VALID,0,VALID,18.9334,VALID,121,VALID,0.500633,
2002-05-06, 02:44:00,VALID,912.857,VALID,0,VALID,99.8171,VALID,0.0339617,VALID,18.9458,VALID,124,VALID,0.757595,
2002-05-06, 02:45:00,VALID,912.845,VALID,0,VALID,99.8057,VALID,0.0169808,VALID,18.994,VALID,129,VALID,0.562737,
2002-05-06, 02:46:01,VALID,912.835,VALID,0,VALID,99.807,VALID,0.0169808,VALID,19.0042,VALID,127,VALID,0.776515,
2002-05-06, 02:47:01,VALID,912.825,VALID,0,VALID,99.8044,VALID,0.0169808,VALID,19.001,VALID,115,VALID,0.628495,
2002-05-06, 02:48:00,VALID,912.814,VALID,0,VALID,99.807,VALID,0,VALID,18.991,VALID,120,VALID,0.780816,
2002-05-06, 02:49:00,VALID,912.807,VALID,0,VALID,99.8044,VALID,0.0169808,VALID,19.0079,VALID,124,VALID,0.902027,
2002-05-06, 02:50:00,VALID,912.801,VALID,0,VALID,99.8057,VALID,0,VALID,19.0139,VALID,127,VALID,0.88303,
2002-05-06, 02:51:00,VALID,912.797,VALID,0,VALID,99.807,VALID,0,VALID,19.0559,VALID,126,VALID,0.798611,
2002-05-06, 02:52:00,VALID,912.795,VALID,0,VALID,99.7943,VALID,0,VALID,19.0917,VALID,131,VALID,0.533854,
2002-05-06, 02:53:01,VALID,912.78,VALID,0,VALID,99.7854,VALID,0,VALID,19.0783,VALID,128,VALID,0.365954,
2002-05-06, 02:54:00,VALID,912.766,VALID,0,VALID,99.7981,VALID,0,VALID,19.0497,VALID,121,VALID,0.6875,
2002-05-06, 02:55:00,VALID,912.748,VALID,0,VALID,99.7968,VALID,0,VALID,19.0402,VALID,90,VALID,0.613971,
2002-05-06, 02:56:01,VALID,912.739,VALID,0,VALID,99.7993,VALID,0,VALID,19.0074,VALID,60,VALID,0.893229,
2002-05-06, 02:57:00,VALID,912.726,VALID,0,VALID,99.8006,VALID,0.0339617,VALID,18.9652,VALID,60,VALID,0.883247,
2002-05-06, 02:58:00,VALID,912.698,VALID,0,VALID,99.821,VALID,0.0339617,VALID,18.9458,VALID,62,VALID,0.877068,
2002-05-06, 02:59:00,VALID,912.697,VALID,0,VALID,99.8146,VALID,0,VALID,18.9138,VALID,41,VALID,0.823902,
2002-05-06, 03:00:00,VALID,912.683,VALID,0,VALID,99.8222,VALID,0.0339617,VALID,18.8715,VALID,49,VALID,0.642004,
2002-05-06, 03:01:00,VALID,912.673,VALID,0,VALID,99.8184,VALID,0.0169808,VALID,18.8785,VALID,64,VALID,0.71326,
2002-05-06, 03:02:00,VALID,912.667,VALID,0,VALID,99.821,VALID,0,VALID,18.8593,VALID,64,VALID,0.624132,
2002-05-06, 03:03:00,VALID,912.672,VALID,0,VALID,99.8286,VALID,0,VALID,18.8104,VALID,64,VALID,0.517282,
2002-05-06, 03:04:01,VALID,912.674,VALID,0,VALID,99.8222,VALID,0,VALID,18.7527,VALID,63,VALID,0.584754,
2002-05-06, 03:05:01,VALID,912.684,VALID,0,VALID,99.8489,VALID,0.0169808,VALID,18.6623,VALID,57,VALID,0.790502,
2002-05-06, 03:06:00,VALID,912.682,VALID,0,VALID,99.8477,VALID,0.0169808,VALID,18.633,VALID,56,VALID,0.939887,
2002-05-06, 03:07:00,VALID,912.683,VALID,0,VALID,99.8502,VALID,0.0169808,VALID,18.6397,VALID,52,VALID,0.891681,
2002-05-06, 03:08:00,VALID,912.671,VALID,0,VALID,99.8527,VALID,0,VALID,18.6104,VALID,47,VALID,0.825521,
2002-05-06, 03:09:00,VALID,912.662,VALID,0,VALID,99.8527,VALID,0,VALID,18.6462,VALID,46,VALID,0.731554,
2002-05-06, 03:10:01,VALID,912.646,VALID,0,VALID,99.8464,VALID,0.0169808,VALID,18.6618,VALID,46,VALID,0.598741,
2002-05-06, 03:11:01,VALID,912.627,VALID,0,VALID,99.8489,VALID,0,VALID,18.5977,VALID,46,VALID,0.603002,
2002-05-06, 03:12:00,VALID,912.6,VALID,0,VALID,99.8616,VALID,0,VALID,18.6199,VALID,46,VALID,0.457248,
2002-05-06, 03:13:00,VALID,912.589,VALID,0,VALID,99.854,VALID,0,VALID,18.7015,VALID,46,VALID,0.410156,
2002-05-06, 03:14:01,VALID,912.572,VALID,0,VALID,99.8489,VALID,0,VALID,18.8039,VALID,46,VALID,0.314103,
2002-05-06, 03:15:00,VALID,912.565,VALID,0,VALID,99.8438,VALID,0,VALID,18.8983,VALID,46,VALID,0.238498,
2002-05-06, 03:16:00,VALID,912.549,VALID,0,VALID,99.8248,VALID,-0.0169808,VALID,18.9562,VALID,46,VALID,0.0716912,
2002-05-06, 03:17:00,VALID,912.525,VALID,0,VALID,99.8311,VALID,0,VALID,18.9334,VALID,45,VALID,0.220861,
2002-05-06, 03:18:00,VALID,912.523,VALID,0,VALID,99.8311,VALID,0.0169808,VALID,18.9461,VALID,33,VALID,0.343061,
2002-05-06, 03:19:00,VALID,912.501,VALID,0,VALID,99.8235,VALID,0.0169808,VALID,18.9205,VALID,33,VALID,0,
2002-05-06, 03:20:00,VALID,912.492,VALID,0,VALID,99.8248,VALID,0,VALID,18.9175,VALID,33,VALID,0,
2002-05-06, 03:21:00,VALID,912.491,VALID,0,VALID,99.8299,VALID,0.0169808,VALID,18.8785,VALID,33,VALID,0.0575284,
2002-05-06, 03:22:01,VALID,912.48,VALID,0,VALID,99.84,VALID,0.0169808,VALID,18.8598,VALID,32,VALID,0.133996,
2002-05-06, 03:23:01,VALID,912.48,VALID,0,VALID,99.8362,VALID,0,VALID,18.8429,VALID,19,VALID,0.414885,
2002-05-06, 03:24:00,VALID,912.481,VALID,0,VALID,99.854,VALID,0.0169808,VALID,18.8725,VALID,10,VALID,0.582899,
2002-05-06, 03:25:00,VALID,912.473,VALID,0,VALID,99.854,VALID,0,VALID,18.8464,VALID,7,VALID,0.508235,
2002-05-06, 03:26:00,VALID,912.47,VALID,0,VALID,99.8566,VALID,-0.0169808,VALID,18.863,VALID,8,VALID,0.782986,
2002-05-06, 03:27:00,VALID,912.455,VALID,0,VALID,99.8413,VALID,0,VALID,18.8529,VALID,2,VALID,0.536241,
2002-05-06, 03:28:00,VALID,912.456,VALID,0,VALID,99.8464,VALID,0,VALID,18.8912,VALID,360,VALID,0.669488,
2002-05-06, 03:29:01,VALID,912.445,VALID,0,VALID,99.8349,VALID,0.0169808,VALID,18.9855,VALID,358,VALID,0.724507,
2002-05-06, 03:30:00,VALID,912.433,VALID,0,VALID,99.8286,VALID,0.0169808,VALID,19.0241,VALID,338,VALID,0.305556,
2002-05-06, 03:31:00,VALID,912.427,VALID,0,VALID,99.8388,VALID,0.0169808,VALID,19.0204,VALID,329,VALID,0.00275735,
2002-05-06, 03:32:01,VALID,912.428,VALID,0,VALID,99.8311,VALID,0,VALID,19.0178,VALID,346,VALID,0,
2002-05-06, 03:33:00,VALID,912.438,VALID,0,VALID,99.8375,VALID,0.0169808,VALID,18.9885,VALID,6,VALID,0.397569,
2002-05-06, 03:34:00,VALID,912.444,VALID,0,VALID,99.8375,VALID,0.0169808,VALID,18.9851,VALID,7,VALID,0.509651,
2002-05-06, 03:35:00,VALID,912.453,VALID,0,VALID,99.8438,VALID,-0.0169808,VALID,18.9461,VALID,7,VALID,0.448691,
2002-05-06, 03:36:00,VALID,912.467,VALID,0,VALID,99.8438,VALID,0,VALID,18.9142,VALID,7,VALID,0.411994,